Location: *
(90.0000°N, 180.0000°W)
Time: 18:38:50
(UTC+01:00)

Okean O Rocket - Visible Passes

Search period start: 03 December 2016 00:00
Search period end: 13 December 2016 00:00
Orbit: 623 x 645 km, 98.1° (Epoch: 03 December)

Date Brightness Start Highest point End Pass type
(mag) Time Alt. Az. Time Alt. Az. Time Alt. Az.
03 Dec 3.4 00:08:08 10° SE 00:12:05 30° SSW 00:16:03 10° W visible
03 Dec 3.4 01:45:37 10° S 01:49:33 30° SW 01:53:31 10° WNW visible
03 Dec 3.4 03:23:04 10° SSW 03:27:01 30° WSW 03:30:59 10° NW visible
03 Dec 3.4 05:00:32 10° SW 05:04:29 30° WNW 05:08:27 10° NNW visible
03 Dec 3.4 06:38:00 10° WSW 06:41:57 30° NW 06:45:54 10° N visible
03 Dec 3.4 08:15:28 10° W 08:19:25 30° NNW 08:23:23 10° NNE visible
03 Dec 3.4 09:52:55 10° WNW 09:56:52 30° N 10:00:50 10° ENE visible
03 Dec 3.4 11:30:23 10° NW 11:34:21 30° NNE 11:38:18 10° E visible
03 Dec 3.4 13:07:51 10° NNW 13:11:48 30° NE 13:15:46 10° ESE visible
03 Dec 3.4 14:45:19 10° N 14:49:16 30° ENE 14:53:14 10° SE visible
03 Dec 3.4 16:22:47 10° NNE 16:26:44 30° E 16:30:41 10° SSE visible
03 Dec 3.4 18:00:15 10° NE 18:04:12 30° ESE 18:08:10 10° S visible
03 Dec 3.4 19:37:42 10° ENE 19:41:39 30° SE 19:45:37 10° SSW visible
03 Dec 3.4 21:15:10 10° ESE 21:19:07 30° SSE 21:23:05 10° SW visible
03 Dec 3.4 22:52:38 10° SE 22:56:35 30° S 23:00:33 10° WSW visible
04 Dec 3.4 00:30:06 10° SSE 00:34:02 30° SSW 00:38:01 10° W visible
04 Dec 3.4 02:07:34 10° S 02:11:31 30° WSW 02:15:28 10° WNW visible
04 Dec 3.4 03:45:01 10° SSW 03:48:58 30° W 03:52:56 10° NW visible
04 Dec 3.4 05:22:29 10° SW 05:26:26 30° WNW 05:30:24 10° N visible
04 Dec 3.4 06:59:57 10° WSW 07:03:54 30° NW 07:07:53 10° NNE visible
04 Dec 3.4 08:37:25 10° W 08:41:22 30° NNW 08:45:20 10° NE visible
04 Dec 3.4 10:14:53 10° WNW 10:18:49 30° N 10:22:48 10° ENE visible
04 Dec 3.4 11:52:20 10° NW 11:56:17 30° NNE 12:00:16 10° E visible
04 Dec 3.4 13:29:48 10° NNW 13:33:45 30° NE 13:37:44 10° ESE visible
04 Dec 3.4 15:07:16 10° N 15:11:13 30° ENE 15:15:11 10° SE visible
04 Dec 3.4 16:44:44 10° NE 16:48:41 30° E 16:52:39 10° SSE visible
04 Dec 3.4 18:22:12 10° ENE 18:26:09 30° ESE 18:30:07 10° S visible
04 Dec 3.4 19:59:39 10° E 20:03:36 30° SE 20:07:35 10° SSW visible
04 Dec 3.4 21:37:07 10° ESE 21:41:04 30° S 21:45:03 10° SW visible
04 Dec 3.4 23:14:35 10° SE 23:18:32 30° SSW 23:22:31 10° WSW visible
05 Dec 3.4 00:52:03 10° SSE 00:56:00 30° SW 00:59:58 10° WNW visible
05 Dec 3.4 02:29:30 10° S 02:33:28 30° WSW 02:37:26 10° NW visible
05 Dec 3.4 04:06:58 10° SSW 04:10:55 30° W 04:14:54 10° NNW visible
05 Dec 3.4 05:44:26 10° SW 05:48:23 31° WNW 05:52:22 10° N visible
05 Dec 3.4 07:21:54 10° WSW 07:25:51 31° NW 07:29:50 10° NNE visible
05 Dec 3.4 08:59:22 10° W 09:03:19 31° NNW 09:07:18 10° NE visible
05 Dec 3.4 10:36:50 10° WNW 10:40:47 31° N 10:44:45 10° ENE visible
05 Dec 3.4 12:14:17 10° NNW 12:18:15 31° NNE 12:22:13 10° E visible
05 Dec 3.4 13:51:45 10° N 13:55:42 31° NE 13:59:41 10° ESE visible
05 Dec 3.4 15:29:14 10° NNE 15:33:11 31° ENE 15:37:09 10° SE visible
05 Dec 3.4 17:06:41 10° NE 17:10:38 31° ESE 17:14:37 10° SSE visible
05 Dec 3.4 18:44:09 10° ENE 18:48:06 31° SE 18:52:04 10° S visible
05 Dec 3.4 20:21:37 10° E 20:25:34 31° SSE 20:29:32 10° SW visible
05 Dec 3.4 21:59:05 10° ESE 22:03:02 31° S 22:07:00 10° WSW visible
05 Dec 3.4 23:36:32 10° SE 23:40:29 31° SSW 23:44:28 10° W visible
06 Dec 3.4 01:14:00 10° SSE 01:17:57 31° SW 01:21:56 10° WNW visible
06 Dec 3.4 02:51:28 10° S 02:55:25 31° WSW 02:59:24 10° NW visible
06 Dec 3.4 04:28:55 10° SSW 04:32:53 31° W 04:36:51 10° NNW visible
06 Dec 3.4 06:06:23 10° SW 06:10:20 31° WNW 06:14:19 10° N visible
06 Dec 3.4 07:43:51 10° W 07:47:49 31° NW 07:51:47 10° NNE visible
06 Dec 3.4 09:21:19 10° WNW 09:25:16 31° NNW 09:29:15 10° NE visible
06 Dec 3.4 10:58:47 10° NW 11:02:44 31° N 11:06:43 10° ENE visible
06 Dec 3.4 12:36:15 10° NNW 12:40:12 31° NE 12:44:11 10° E visible
06 Dec 3.4 14:13:42 10° N 14:17:39 31° ENE 14:21:38 10° ESE visible
06 Dec 3.4 15:51:10 10° NNE 15:55:07 31° E 15:59:06 10° SSE visible
06 Dec 3.4 17:28:38 10° NE 17:32:35 31° ESE 17:36:34 10° S visible
06 Dec 3.4 19:06:06 10° ENE 19:10:03 31° SE 19:14:02 10° SSW visible
06 Dec 3.4 20:43:33 10° E 20:47:31 31° SSE 20:51:29 10° SW visible
06 Dec 3.4 22:21:01 10° ESE 22:24:59 31° S 22:28:58 10° WSW visible
06 Dec 3.4 23:58:29 10° SE 00:02:26 31° SSW 00:06:25 10° W visible
07 Dec 3.4 01:35:57 10° SSE 01:39:54 31° SW 01:43:53 10° WNW visible
07 Dec 3.4 03:13:25 10° SSW 03:17:22 31° WSW 03:21:21 10° NW visible
07 Dec 3.4 04:50:53 10° SW 04:54:50 31° W 04:58:49 10° NNW visible
07 Dec 3.4 06:28:20 10° WSW 06:32:18 31° WNW 06:36:16 10° N visible
07 Dec 3.4 08:05:48 10° W 08:09:46 31° NNW 08:13:45 10° NNE visible
07 Dec 3.4 09:43:16 10° WNW 09:47:13 31° N 09:51:12 10° NE visible
07 Dec 3.4 11:20:44 10° NW 11:24:41 31° NNE 11:28:41 10° E visible
07 Dec 3.4 12:58:11 10° NNW 13:02:09 31° NE 13:06:08 10° ESE visible
07 Dec 3.4 14:35:39 10° N 14:39:37 31° ENE 14:43:36 10° SE visible
07 Dec 3.4 16:13:07 10° NNE 16:17:05 31° E 16:21:03 10° SSE visible
07 Dec 3.4 17:50:35 10° NE 17:54:33 31° ESE 17:58:31 10° S visible
07 Dec 3.4 19:28:02 10° ENE 19:32:00 31° SE 19:35:59 10° SSW visible
07 Dec 3.4 21:05:31 10° E 21:09:28 31° SSE 21:13:27 10° SW visible
07 Dec 3.4 22:42:58 10° SE 22:46:56 31° S 22:50:54 10° WSW visible
08 Dec 3.4 00:20:26 10° SSE 00:24:24 31° SSW 00:28:23 10° W visible
08 Dec 3.4 01:57:54 10° S 02:01:52 31° SW 02:05:50 10° WNW visible
08 Dec 3.4 03:35:22 10° SSW 03:39:20 31° W 03:43:18 10° NW visible
08 Dec 3.4 05:12:49 10° SW 05:16:47 31° WNW 05:20:46 10° NNW visible
08 Dec 3.4 06:50:17 10° WSW 06:54:15 31° NW 06:58:14 10° NNE visible
08 Dec 3.4 08:27:45 10° W 08:31:43 31° NNW 08:35:41 10° NE visible
08 Dec 3.4 10:05:13 10° WNW 10:09:11 31° N 10:13:09 10° ENE visible
08 Dec 3.4 11:42:41 10° NW 11:46:39 31° NNE 11:50:37 10° E visible
08 Dec 3.4 13:20:08 10° NNW 13:24:06 31° NE 13:28:04 10° ESE visible
08 Dec 3.4 14:57:36 10° N 15:01:34 31° ENE 15:05:32 10° SE visible
08 Dec 3.4 16:35:05 10° NNE 16:39:02 31° E 16:43:00 10° SSE visible
08 Dec 3.4 18:12:32 10° NE 18:16:30 31° ESE 18:20:27 10° S visible
08 Dec 3.4 19:50:00 10° E 19:53:57 31° SE 19:57:55 10° SSW visible
08 Dec 3.4 21:27:27 10° ESE 21:31:25 31° SSE 21:35:22 10° SW visible
08 Dec 3.4 23:04:55 10° SE 23:08:53 31° SSW 23:12:50 10° WSW visible
09 Dec 3.4 00:42:23 10° SSE 00:46:21 31° SW 00:50:18 10° W visible
09 Dec 3.4 02:19:51 10° S 02:23:49 31° WSW 02:27:45 10° WNW visible
09 Dec 3.4 03:57:19 10° SSW 04:01:17 31° W 04:05:13 10° NNW visible
09 Dec 3.4 05:34:46 10° SW 05:38:44 31° WNW 05:42:40 10° N visible
09 Dec 3.4 07:12:14 10° WSW 07:16:12 31° NW 07:20:08 10° NNE visible
09 Dec 3.4 08:49:42 10° W 08:53:40 31° NNW 08:57:35 10° NE visible
09 Dec 3.4 10:27:10 10° WNW 10:31:08 31° N 10:35:03 10° ENE visible
09 Dec 3.4 12:04:38 10° NW 12:08:36 31° NNE 12:12:31 10° E visible
09 Dec 3.4 13:42:05 10° NNW 13:46:04 31° NE 13:49:58 10° ESE visible
09 Dec 3.4 15:19:33 10° NNE 15:23:31 31° ENE 15:27:26 10° SE visible
09 Dec 3.4 16:57:01 10° NE 17:00:59 31° E 17:04:54 10° SSE visible
09 Dec 3.3 18:34:29 10° ENE 18:38:27 31° SE 18:42:21 10° S visible
09 Dec 3.4 20:11:57 10° E 20:15:55 31° SSE 20:19:49 10° SSW visible
09 Dec 3.4 21:49:24 10° ESE 21:53:23 31° S 21:57:16 10° SW visible
09 Dec 3.4 23:26:52 10° SE 23:30:51 31° SSW 23:34:44 10° W visible
10 Dec 3.4 01:04:20 10° SSE 01:08:18 31° SW 01:12:12 10° WNW visible
10 Dec 3.4 02:41:48 10° S 02:45:46 31° WSW 02:49:39 11° NW visible
10 Dec 3.3 04:19:15 10° SSW 04:23:14 31° W 04:27:07 11° NNW visible
10 Dec 3.4 05:56:44 10° SW 06:00:42 31° WNW 06:04:34 11° N visible
10 Dec 3.3 07:34:12 10° WSW 07:38:10 31° NW 07:42:02 11° NNE visible
10 Dec 3.4 09:11:39 10° W 09:15:37 31° NNW 09:19:30 11° NE visible
10 Dec 3.3 10:49:07 10° NW 10:53:05 31° N 10:56:57 11° ENE visible
10 Dec 3.4 12:26:35 10° NNW 12:30:33 31° NNE 12:34:25 11° E visible
10 Dec 3.3 14:04:03 10° N 14:08:01 31° ENE 14:11:53 11° ESE visible
10 Dec 3.4 15:41:30 10° NNE 15:45:28 31° E 15:49:20 11° SE visible
10 Dec 3.3 17:18:58 10° NE 17:22:57 31° ESE 17:26:48 11° SSE visible
10 Dec 3.4 18:56:26 10° ENE 19:00:24 31° SE 19:04:15 11° SSW visible
10 Dec 3.3 20:33:54 10° E 20:37:52 31° SSE 20:41:43 11° SW visible
10 Dec 3.3 22:11:22 10° ESE 22:15:20 31° S 22:19:11 11° WSW visible
10 Dec 3.4 23:48:49 10° SE 23:52:47 31° SSW 23:56:38 11° W visible
11 Dec 3.3 01:26:17 10° SSE 01:30:15 31° SW 01:34:06 11° WNW visible
11 Dec 3.3 03:03:45 10° S 03:07:43 31° WSW 03:11:34 11° NW visible
11 Dec 3.3 04:41:13 10° SSW 04:45:11 31° W 04:49:01 11° NNW visible
11 Dec 3.3 06:18:40 10° WSW 06:22:39 31° WNW 06:26:29 11° N visible
11 Dec 3.3 07:56:08 10° W 08:00:07 31° NW 08:03:56 11° NNE visible
11 Dec 3.3 09:33:36 10° WNW 09:37:34 31° N 09:41:24 11° NE visible
11 Dec 3.3 11:11:04 10° NW 11:15:02 31° NNE 11:18:52 11° ENE visible
11 Dec 3.3 12:48:32 10° NNW 12:52:30 31° NE 12:56:19 11° E visible
11 Dec 3.3 14:26:00 10° N 14:29:58 31° ENE 14:33:47 11° SE visible
11 Dec 3.3 16:03:27 10° NNE 16:07:25 31° E 16:11:15 11° SSE visible
11 Dec 3.3 17:40:55 10° NE 17:44:54 31° ESE 17:48:42 11° S visible
11 Dec 3.3 19:18:23 10° ENE 19:22:21 31° SE 19:26:10 11° SSW visible
11 Dec 3.3 20:55:51 10° E 20:59:49 31° SSE 21:03:37 11° SW visible
11 Dec 3.3 22:33:18 10° ESE 22:37:17 31° S 22:41:05 11° WSW visible
12 Dec 3.3 00:10:46 10° SE 00:14:45 31° SSW 00:18:33 11° W visible
12 Dec 3.3 01:48:14 10° S 01:52:13 31° SW 01:56:00 11° WNW visible
12 Dec 3.3 03:25:42 10° SSW 03:29:40 31° WSW 03:33:28 11° NW visible
12 Dec 3.3 05:03:09 10° SW 05:07:08 31° WNW 05:10:56 11° NNW visible
12 Dec 3.3 06:40:38 10° WSW 06:44:36 31° NW 06:48:23 11° N visible
12 Dec 3.3 08:18:05 10° W 08:22:04 31° NNW 08:25:51 11° NNE visible
12 Dec 3.3 09:55:33 10° WNW 09:59:32 31° N 10:03:18 11° NE visible
12 Dec 3.3 11:33:01 10° NW 11:36:59 31° NNE 11:40:46 11° E visible
12 Dec 3.3 13:10:29 10° NNW 13:14:28 31° NE 13:18:14 11° ESE visible
12 Dec 3.3 14:47:56 10° N 14:51:56 31° ENE 14:55:41 11° SE visible
12 Dec 3.3 16:25:24 10° NNE 16:29:23 31° E 16:33:09 11° SSE visible
12 Dec 3.3 18:02:52 10° NE 18:06:51 31° ESE 18:10:37 11° S visible
12 Dec 3.3 19:40:20 10° ENE 19:44:19 31° SE 19:48:04 11° SSW visible
12 Dec 3.3 21:17:48 10° ESE 21:21:46 31° SSE 21:25:32 11° SW visible
12 Dec 3.3 22:55:15 10° SE 22:59:15 31° S 23:02:59 11° WSW visible
